When you browse on this site, cookies collect data to enhance your experience and personalize the content and advertising you see.
Visit our Privacy Policy to learn more. By continuing to use the site, you agree to this use of cookies and data.
  • In Slovakia
  • List of Countries
  • For 7 days
  • Water Temperature
  • Satellite Maps
  • Weather Map
  • Weather Widgets
  • user-avatar
    Login

    Hourly Weather Andora

    Today, 9 December, Sunday

    Time Temperature Precipitation Wind Pressure Humidity
    00:00 +1°C° 0 mm 3 mps 628 mmHg 73%
    01:00 +1°C° 0 mm 3 mps 628 mmHg 74%
    02:00 +1°C° 0 mm 3 mps 628 mmHg 75%
    03:00 +1°C° 0 mm 3 mps 627 mmHg 75%
    04:00 0°C° 0 mm 3 mps 627 mmHg 71%
    05:00 0°C° 0 mm 3 mps 627 mmHg 67%
    06:00 -1°C° 0 mm 2 mps 627 mmHg 62%
    07:00 +1°C° 0 mm 3 mps 627 mmHg 56%
    08:00 +2°C° 0 mm 3 mps 628 mmHg 50%
    09:00 +3°C° 0 mm 3 mps 629 mmHg 45%
    10:00 +5°C° 0 mm 3 mps 629 mmHg 41%
    11:00 +7°C° 0 mm 3 mps 630 mmHg 38%
    12:00 +8°C° 0 mm 4 mps 630 mmHg 36%
    13:00 +7°C° 0 mm 4 mps 630 mmHg 41%
    14:00 +6°C° 0 mm 4 mps 630 mmHg 46%
    15:00 +5°C° 0 mm 4 mps 629 mmHg 51%
    16:00 +4°C° 0 mm 4 mps 629 mmHg 58%
    17:00 +1°C° 0 mm 4 mps 629 mmHg 65%
    18:00 -1°C° 0 mm 4 mps 629 mmHg 71%
    19:00 -1°C° 0 mm 4 mps 629 mmHg 71%
    20:00 -1°C° 0 mm 4 mps 629 mmHg 71%
    21:00 -2°C° 0 mm 4 mps 629 mmHg 71%
    22:00 -1°C° 0 mm 3 mps 629 mmHg 69%
    23:00 -1°C° 0 mm 3 mps 630 mmHg 67%

    Tomorrow, 10 December, Monday

    Time Temperature Precipitation Wind Pressure Humidity
    00:00 -1°C° 0 mm 3 mps 630 mmHg 65%
    01:00 -2°C° 0 mm 3 mps 630 mmHg 63%
    02:00 -2°C° 0 mm 3 mps 630 mmHg 62%
    03:00 -2°C° 0 mm 3 mps 630 mmHg 61%
    04:00 -2°C° 0 mm 3 mps 630 mmHg 60%
    05:00 -2°C° 0 mm 3 mps 630 mmHg 59%
    06:00 -2°C° 0 mm 3 mps 629 mmHg 58%
    07:00 -1°C° 0 mm 2 mps 630 mmHg 55%
    08:00 +1°C° 0 mm 2 mps 631 mmHg 53%
    09:00 +2°C° 0 mm 2 mps 631 mmHg 50%
    10:00 +3°C° 0 mm 2 mps 631 mmHg 49%
    11:00 +4°C° 0 mm 2 mps 632 mmHg 47%
    12:00 +6°C° 0 mm 2 mps 632 mmHg 46%
    13:00 +5°C° 0 mm 2 mps 632 mmHg 50%
    14:00 +5°C° 0 mm 2 mps 631 mmHg 54%
    15:00 +4°C° 0 mm 2 mps 631 mmHg 58%
    16:00 +3°C° 0 mm 2 mps 630 mmHg 65%
    17:00 +1°C° 0 mm 2 mps 629 mmHg 73%
    18:00 -1°C° 0 mm 2 mps 629 mmHg 80%
    19:00 -2°C° 0 mm 2 mps 628 mmHg 78%
    20:00 -2°C° 0 mm 2 mps 628 mmHg 75%
    21:00 -2°C° 0 mm 2 mps 628 mmHg 73%
    22:00 -2°C° 0 mm 2 mps 628 mmHg 71%
    23:00 -2°C° 0 mm 2 mps 628 mmHg 69%

    Day after tomorrow, 11 December, Tuesday

    Time Temperature Precipitation Wind Pressure Humidity
    00:00 0°C° 0 mm 1 mps 628 mmHg 67%
    01:00 0°C° 0 mm 1 mps 627 mmHg 67%
    02:00 0°C° 0 mm 1 mps 627 mmHg 67%
    03:00 0°C° 0 mm 1 mps 626 mmHg 67%
    04:00 0°C° 0 mm 1 mps 626 mmHg 66%
    05:00 0°C° 0 mm 1 mps 626 mmHg 66%
    06:00 0°C° 0 mm 1 mps 625 mmHg 65%
    07:00 +1°C° 0 mm 1 mps 626 mmHg 62%
    08:00 +2°C° 0 mm 1 mps 626 mmHg 58%
    09:00 +3°C° 0 mm 1 mps 627 mmHg 55%
    10:00 +5°C° 0 mm 1 mps 627 mmHg 51%
    11:00 +6°C° 0 mm 1 mps 627 mmHg 48%
    12:00 +8°C° 0 mm 1 mps 627 mmHg 45%
    13:00 +7°C° 0 mm 1 mps 627 mmHg 49%
    14:00 +7°C° 0 mm 1 mps 626 mmHg 53%
    15:00 +6°C° 0 mm 1 mps 626 mmHg 58%
    16:00 +5°C° 0 mm 1 mps 625 mmHg 63%
    17:00 +3°C° 0 mm 1 mps 625 mmHg 68%
    18:00 +1°C° 0 mm 1 mps 624 mmHg 73%
    19:00 +1°C° 0 mm 2 mps 624 mmHg 69%
    20:00 +1°C° 0 mm 2 mps 625 mmHg 66%
    21:00 +1°C° 0 mm 2 mps 625 mmHg 63%
    22:00 +1°C° 0 mm 2 mps 625 mmHg 61%
    23:00 +1°C° 0 mm 2 mps 625 mmHg 59%

    12 December, Wednesday

    Time Temperature Precipitation Wind Pressure Humidity
    00:00 +1°C° 0 mm 2 mps 625 mmHg 58%
    01:00 -1°C° 0 mm 2 mps 625 mmHg 58%
    02:00 -1°C° 0 mm 2 mps 625 mmHg 58%
    03:00 -1°C° 0 mm 2 mps 624 mmHg 59%
    04:00 -1°C° 0 mm 2 mps 624 mmHg 59%
    05:00 -2°C° 0 mm 2 mps 624 mmHg 58%
    06:00 -2°C° 0 mm 2 mps 624 mmHg 58%
    07:00 -1°C° 0 mm 2 mps 625 mmHg 58%
    08:00 +3°C° 0 mm 1 mps 625 mmHg 57%
    09:00 +4°C° 0 mm 1 mps 626 mmHg 57%
    10:00 +5°C° 0 mm 1 mps 626 mmHg 56%
    11:00 +6°C° 0 mm 1 mps 626 mmHg 55%
    12:00 +7°C° 0 mm 1 mps 626 mmHg 54%
    13:00 +6°C° 0 mm 1 mps 625 mmHg 60%
    14:00 +6°C° 0 mm 1 mps 625 mmHg 66%
    15:00 +5°C° 0 mm 1 mps 624 mmHg 71%
    16:00 +4°C° 0 mm 1 mps 623 mmHg 77%
    17:00 +2°C° 0 mm 1 mps 623 mmHg 82%
    18:00 0°C° 0 mm 0 mps 622 mmHg 88%
    19:00 0°C° 0 mm 0 mps 622 mmHg 87%
    20:00 0°C° 0 mm 0 mps 622 mmHg 87%
    21:00 0°C° 0 mm 0 mps 622 mmHg 86%
    22:00 0°C° 0 mm 0 mps 622 mmHg 86%
    23:00 +1°C° 0 mm 1 mps 622 mmHg 86%

    13 December, Thursday

    Time Temperature Precipitation Wind Pressure Humidity
    00:00 +1°C° 0 mm 1 mps 622 mmHg 85%
    01:00 +1°C° 0 mm 1 mps 621 mmHg 87%
    02:00 0°C° 0 mm 0 mps 621 mmHg 88%
    03:00 -1°C° 0 mm 0 mps 620 mmHg 90%
    04:00 0°C° 0 mm 1 mps 620 mmHg 89%
    05:00 0°C° 0 mm 1 mps 620 mmHg 88%
    06:00 0°C° 0 mm 1 mps 620 mmHg 87%
    07:00 +1°C° 0 mm 1 mps 621 mmHg 82%
    08:00 +2°C° 0 mm 1 mps 621 mmHg 77%
    09:00 +3°C° 0 mm 1 mps 622 mmHg 71%
    10:00 +4°C° 0 mm 1 mps 622 mmHg 67%
    11:00 +5°C° 0 mm 1 mps 623 mmHg 63%
    12:00 +5°C° 0 mm 2 mps 623 mmHg 59%
    13:00 +5°C° 0.1 mm 2 mps 623 mmHg 65%
    14:00 +4°C° 0.1 mm 2 mps 622 mmHg 71%
    15:00 +4°C° 0.1 mm 2 mps 622 mmHg 76%
    16:00 +3°C° 0.2 mm 2 mps 622 mmHg 81%
    17:00 +2°C° 0.2 mm 2 mps 622 mmHg 86%
    18:00 +1°C° 0.2 mm 2 mps 622 mmHg 90%
    19:00 +1°C° 0 mm 2 mps 622 mmHg 91%
    20:00 -1°C° 0 mm 2 mps 623 mmHg 91%
    21:00 -1°C° 0 mm 2 mps 623 mmHg 92%
    22:00 -1°C° 0 mm 2 mps 623 mmHg 91%
    23:00 -1°C° 0 mm 2 mps 623 mmHg 90%

    14 December, Friday

    Time Temperature Precipitation Wind Pressure Humidity
    00:00 -2°C° 0 mm 2 mps 623 mmHg 89%
    01:00 0°C° 0 mm 1 mps 623 mmHg 88%
    02:00 0°C° 0 mm 1 mps 622 mmHg 87%
    03:00 0°C° 0 mm 1 mps 622 mmHg 86%
    04:00 0°C° 0 mm 1 mps 622 mmHg 85%
    05:00 0°C° 0 mm 1 mps 622 mmHg 83%
    06:00 0°C° 0 mm 1 mps 622 mmHg 81%
    07:00 +1°C° 0 mm 1 mps 623 mmHg 78%
    08:00 +2°C° 0 mm 1 mps 623 mmHg 74%
    09:00 +3°C° 0 mm 1 mps 624 mmHg 71%
    10:00 +3°C° 0.5 mm 1 mps 624 mmHg 73%
    11:00 +4°C° 0.5 mm 1 mps 624 mmHg 75%
    12:00 +4°C° 0.5 mm 1 mps 624 mmHg 78%
    13:00 +5°C° 0 mm 1 mps 625 mmHg 77%
    14:00 +6°C° 0 mm 1 mps 625 mmHg 76%
    15:00 +6°C° 0 mm 2 mps 625 mmHg 76%
    16:00 +4°C° 0 mm 2 mps 625 mmHg 79%
    17:00 +3°C° 0 mm 2 mps 624 mmHg 82%
    18:00 +2°C° 0 mm 2 mps 624 mmHg 85%
    19:00 +1°C° 0 mm 2 mps 624 mmHg 81%
    20:00 +1°C° 0 mm 2 mps 625 mmHg 76%
    21:00 0°C° 0 mm 3 mps 625 mmHg 72%
    22:00 0°C° 0 mm 3 mps 625 mmHg 69%
    23:00 -1°C° 0 mm 3 mps 625 mmHg 66%
    Show more